Time,TemperatureF,DewpointF,PressureIn,WindDirection,WindDirectionDegrees,WindSpeedMPH,WindSpeedGustMPH,Humidity,HourlyPrecipIn,Conditions,Clouds,dailyrainin,SoftwareType,DateUTC
2013-05-04 00:00:00,56.5,41.9,30.15,WSW,253,5.4,15.2,58,-99.99,,,0.00,VWS V14.01,2013-05-04 04:00:00,
2013-05-04 00:30:00,56.5,40.5,30.15,NE,49,2.7,13.0,55,-99.99,,,0.00,VWS V14.01,2013-05-04 04:30:00,
2013-05-04 01:00:00,56.3,39.4,30.15,East,86,3.1,11.6,53,-99.99,,,0.00,VWS V14.01,2013-05-04 05:00:00,
2013-05-04 01:30:00,56.5,40.5,30.15,SSW,201,4.5,10.1,55,-99.99,,,0.00,VWS V14.01,2013-05-04 05:30:00,
2013-05-04 02:00:00,56.8,41.3,30.12,NE,44,4.5,13.4,56,-99.99,,,0.00,VWS V14.01,2013-05-04 06:00:00,
2013-05-04 02:30:00,56.8,41.3,30.12,NE,38,4.5,13.0,56,-99.99,,,0.00,VWS V14.01,2013-05-04 06:30:00,
2013-05-04 03:00:00,56.7,41.2,30.12,NNE,27,5.4,8.7,56,-99.99,,,0.00,VWS V14.01,2013-05-04 07:00:00,
2013-05-04 03:30:00,56.5,41.0,30.09,NNE,22,5.4,13.0,56,-99.99,,,0.00,VWS V14.01,2013-05-04 07:30:00,
2013-05-04 04:00:00,55.9,40.9,30.09,NNE,17,5.4,13.4,57,-99.99,,,0.00,VWS V14.01,2013-05-04 08:00:00,
2013-05-04 04:30:00,55.2,39.3,30.09,NE,43,6.9,12.5,55,-99.99,,,0.00,VWS V14.01,2013-05-04 08:30:00,
2013-05-04 05:00:00,54.7,37.9,30.09,WSW,254,5.8,11.6,53,-99.99,,,0.00,VWS V14.01,2013-05-04 09:00:00,
2013-05-04 05:30:00,54.0,38.2,30.09,NE,44,4.9,15.9,55,-99.99,,,0.00,VWS V14.01,2013-05-04 09:30:00,
2013-05-04 06:00:00,53.2,36.1,30.09,SSW,212,7.4,11.0,52,-99.99,,,0.00,VWS V14.01,2013-05-04 10:00:00,
2013-05-04 06:30:00,53.1,34.4,30.12,SSW,203,5.4,14.3,49,-99.99,,,0.00,VWS V14.01,2013-05-04 10:30:00,
2013-05-04 07:00:00,52.9,33.2,30.09,NNE,30,4.5,13.0,47,-99.99,,,0.00,VWS V14.01,2013-05-04 11:00:00,
2013-05-04 07:30:00,52.7,34.1,30.12,East,95,3.6,13.4,49,-99.99,,,0.00,VWS V14.01,2013-05-04 11:30:00,
2013-05-04 08:00:00,50.0,37.1,30.12,NNE,24,0.0,9.6,61,-99.99,,,0.04,VWS V14.01,2013-05-04 12:00:00,
2013-05-04 08:30:00,49.5,40.5,30.12,NNE,20,5.8,13.0,71,-99.99,,,0.08,VWS V14.01,2013-05-04 12:30:00,
2013-05-04 09:00:00,49.3,42.7,30.09,SW,227,3.6,12.5,78,-99.99,,,0.12,VWS V14.01,2013-05-04 13:00:00,
2013-05-04 09:30:00,49.6,44.1,30.12,NE,43,0.0,7.8,81,-99.99,,,0.16,VWS V14.01,2013-05-04 13:30:00,
2013-05-04 10:00:00,50.5,45.9,30.09,NNE,16,3.1,10.1,84,-99.99,,,0.16,VWS V14.01,2013-05-04 14:00:00,
2013-05-04 10:30:00,50.9,46.6,30.09,ENE,71,9.6,13.4,85,-99.99,,,0.20,VWS V14.01,2013-05-04 14:30:00,
2013-05-04 11:00:00,51.6,47.9,30.06,East,98,5.8,13.9,87,-99.99,,,0.20,VWS V14.01,2013-05-04 15:00:00,
2013-05-04 11:30:00,52.9,49.7,30.09,SW,224,5.8,16.3,89,-99.99,,,0.20,VWS V14.01,2013-05-04 15:30:00,
2013-05-04 12:00:00,53.8,50.3,30.09,NE,37,0.0,16.8,88,-99.99,,,0.20,VWS V14.01,2013-05-04 16:00:00,
2013-05-04 12:30:00,53.8,49.1,30.09,South,183,2.7,16.8,84,-99.99,,,0.28,VWS V14.01,2013-05-04 16:30:00,
2013-05-04 13:00:00,53.1,48.0,30.09,NNE,26,7.4,15.9,83,-99.99,,,0.28,VWS V14.01,2013-05-04 17:00:00,
2013-05-04 13:30:00,54.0,48.9,30.06,NE,49,2.7,12.1,83,-99.99,,,0.28,VWS V14.01,2013-05-04 17:30:00,
2013-05-04 14:00:00,54.1,48.8,30.09,ENE,76,3.6,10.5,82,-99.99,,,0.28,VWS V14.01,2013-05-04 18:00:00,
2013-05-04 14:30:00,53.1,47.7,30.09,NNE,24,3.6,11.6,82,-99.99,,,0.31,VWS V14.01,2013-05-04 18:30:00,
2013-05-04 15:00:00,54.1,49.4,30.09,NNE,12,0.0,4.5,84,-99.99,,,0.35,VWS V14.01,2013-05-04 19:00:00,
2013-05-04 15:30:00,52.7,48.0,30.12,SSE,157,0.0,8.3,84,-99.99,,,0.43,VWS V14.01,2013-05-04 19:30:00,
2013-05-04 16:00:00,51.8,47.4,30.12,SSW,206,0.0,6.9,85,-99.99,,,0.55,VWS V14.01,2013-05-04 20:00:00,
2013-05-04 16:30:00,51.6,47.6,30.09,NNE,27,2.7,6.7,86,-99.99,,,0.63,VWS V14.01,2013-05-04 20:30:00,
2013-05-04 17:00:00,51.6,47.9,30.12,ENE,57,0.0,7.4,87,-99.99,,,0.71,VWS V14.01,2013-05-04 21:00:00,
2013-05-04 17:30:00,51.4,48.0,30.09,NNE,25,0.0,6.9,88,-99.99,,,0.75,VWS V14.01,2013-05-04 21:30:00,
2013-05-04 18:00:00,51.3,48.1,30.12,NE,44,6.7,9.6,89,-99.99,,,0.87,VWS V14.01,2013-05-04 22:00:00,
2013-05-04 18:30:00,51.1,48.2,30.12,NE,55,0.0,13.4,90,-99.99,,,0.98,VWS V14.01,2013-05-04 22:30:00,
2013-05-04 19:00:00,51.1,48.2,30.12,NNE,31,0.0,6.3,90,-99.99,,,1.18,VWS V14.01,2013-05-04 23:00:00,
2013-05-04 19:30:00,51.3,48.7,30.12,NE,36,5.4,6.3,91,-99.99,,,1.22,VWS V14.01,2013-05-04 23:30:00,
2013-05-04 20:00:00,51.3,48.7,30.09,NE,53,3.6,6.7,91,-99.99,,,1.30,VWS V14.01,2013-05-05 00:00:00,
2013-05-04 20:30:00,51.3,48.7,30.09,NE,43,0.0,6.7,91,-99.99,,,1.34,VWS V14.01,2013-05-05 00:30:00,
2013-05-04 21:00:00,51.3,49.0,30.09,NE,42,0.0,7.4,92,-99.99,,,1.38,VWS V14.01,2013-05-05 01:00:00,
2013-05-04 21:30:00,51.3,49.0,30.09,NE,47,2.7,6.3,92,-99.99,,,1.38,VWS V14.01,2013-05-05 01:30:00,
2013-05-04 22:00:00,51.3,49.0,30.09,NE,46,0.0,5.4,92,-99.99,,,1.42,VWS V14.01,2013-05-05 02:00:00,
2013-05-04 22:30:00,51.3,49.0,30.06,NE,45,0.0,5.4,92,-99.99,,,1.42,VWS V14.01,2013-05-05 02:30:00,
2013-05-04 23:00:00,51.3,49.3,30.09,NE,43,0.0,4.9,93,-99.99,,,1.46,VWS V14.01,2013-05-05 03:00:00,
2013-05-04 23:30:00,51.3,49.3,30.06,NNE,17,3.6,6.9,93,-99.99,,,1.50,VWS V14.01,2013-05-05 03:30:00,